When you browse on this site, cookies collect data to enhance your experience and personalize the content and advertising you see.
Visit our Privacy Policy to learn more. By continuing to use the site, you agree to this use of cookies and data.
  • In United Kingdom
  • List of Countries
  • For 7 days
  • Water Temperature
  • Weather Map
  • Weather Widgets
  • user-avatar
    Login

    Hourly Weather Nahariyya

    Today, 16 September, Monday

    Time Temperature Precipitation Wind Pressure Humidity
    00:00 +24°C° 0 mm 2 mps 756 mmHg 82%
    01:00 +24°C° 0 mm 2 mps 756 mmHg 83%
    02:00 +24°C° 0 mm 2 mps 756 mmHg 84%
    03:00 +24°C° 0 mm 2 mps 756 mmHg 82%
    04:00 +25°C° 0 mm 2 mps 756 mmHg 80%
    05:00 +25°C° 0 mm 2 mps 756 mmHg 78%
    06:00 +26°C° 0.1 mm 2 mps 757 mmHg 74%
    07:00 +27°C° 0.1 mm 3 mps 757 mmHg 70%
    08:00 +28°C° 0.1 mm 3 mps 757 mmHg 66%
    09:00 +29°C° 0 mm 4 mps 757 mmHg 62%
    10:00 +30°C° 0 mm 4 mps 757 mmHg 59%
    11:00 +32°C° 0 mm 5 mps 757 mmHg 55%
    12:00 +32°C° 0 mm 4 mps 757 mmHg 54%
    13:00 +32°C° 0 mm 4 mps 757 mmHg 52%
    14:00 +33°C° 0 mm 4 mps 757 mmHg 51%
    15:00 +32°C° 0 mm 4 mps 757 mmHg 54%
    16:00 +30°C° 0 mm 4 mps 757 mmHg 58%
    17:00 +29°C° 0 mm 3 mps 757 mmHg 61%
    18:00 +28°C° 0 mm 3 mps 757 mmHg 67%
    19:00 +27°C° 0 mm 3 mps 757 mmHg 73%
    20:00 +25°C° 0 mm 2 mps 758 mmHg 78%
    21:00 +25°C° 0 mm 2 mps 757 mmHg 79%
    22:00 +25°C° 0 mm 2 mps 757 mmHg 80%
    23:00 +24°C° 0 mm 2 mps 757 mmHg 81%

    Tomorrow, 17 September, Tuesday

    Time Temperature Precipitation Wind Pressure Humidity
    00:00 +24°C° 0 mm 2 mps 757 mmHg 82%
    01:00 +24°C° 0 mm 1 mps 757 mmHg 82%
    02:00 +24°C° 0 mm 1 mps 757 mmHg 83%
    03:00 +24°C° 0 mm 1 mps 757 mmHg 83%
    04:00 +24°C° 0 mm 1 mps 758 mmHg 84%
    05:00 +23°C° 0 mm 1 mps 758 mmHg 84%
    06:00 +25°C° 0 mm 1 mps 758 mmHg 75%
    07:00 +27°C° 0 mm 1 mps 758 mmHg 67%
    08:00 +29°C° 0 mm 1 mps 759 mmHg 59%
    09:00 +30°C° 0 mm 2 mps 759 mmHg 54%
    10:00 +32°C° 0 mm 2 mps 759 mmHg 49%
    11:00 +34°C° 0 mm 3 mps 759 mmHg 44%
    12:00 +34°C° 0 mm 4 mps 758 mmHg 44%
    13:00 +34°C° 0 mm 5 mps 758 mmHg 44%
    14:00 +33°C° 0 mm 5 mps 757 mmHg 44%
    15:00 +32°C° 0 mm 6 mps 757 mmHg 49%
    16:00 +30°C° 0 mm 6 mps 757 mmHg 54%
    17:00 +29°C° 0 mm 6 mps 757 mmHg 59%
    18:00 +28°C° 0 mm 5 mps 757 mmHg 64%
    19:00 +27°C° 0 mm 5 mps 758 mmHg 70%
    20:00 +26°C° 0 mm 4 mps 758 mmHg 75%
    21:00 +25°C° 0 mm 4 mps 758 mmHg 75%
    22:00 +25°C° 0 mm 4 mps 758 mmHg 75%
    23:00 +25°C° 0 mm 4 mps 758 mmHg 75%

    Day after tomorrow, 18 September, Wednesday

    Time Temperature Precipitation Wind Pressure Humidity
    00:00 +25°C° 0 mm 4 mps 758 mmHg 75%
    01:00 +23°C° 0 mm 4 mps 758 mmHg 75%
    02:00 +23°C° 0 mm 4 mps 757 mmHg 74%
    03:00 +24°C° 0 mm 3 mps 758 mmHg 75%
    04:00 +22°C° 0 mm 3 mps 758 mmHg 75%
    05:00 +22°C° 0 mm 3 mps 758 mmHg 75%
    06:00 +25°C° 0 mm 2 mps 758 mmHg 65%
    07:00 +27°C° 0 mm 2 mps 759 mmHg 55%
    08:00 +30°C° 0 mm 2 mps 759 mmHg 45%
    09:00 +31°C° 0 mm 2 mps 759 mmHg 42%
    10:00 +34°C° 0 mm 3 mps 759 mmHg 39%
    11:00 +35°C° 0 mm 4 mps 758 mmHg 36%
    12:00 +35°C° 0 mm 5 mps 758 mmHg 39%
    13:00 +35°C° 0 mm 6 mps 758 mmHg 42%
    14:00 +35°C° 0 mm 7 mps 757 mmHg 46%
    15:00 +34°C° 0 mm 7 mps 757 mmHg 49%
    16:00 +32°C° 0 mm 7 mps 757 mmHg 52%
    17:00 +30°C° 0 mm 7 mps 757 mmHg 54%
    18:00 +29°C° 0 mm 6 mps 757 mmHg 60%
    19:00 +28°C° 0 mm 6 mps 757 mmHg 65%
    20:00 +27°C° 0 mm 5 mps 758 mmHg 71%
    21:00 +26°C° 0 mm 5 mps 758 mmHg 72%
    22:00 +26°C° 0 mm 4 mps 758 mmHg 73%
    23:00 +26°C° 0 mm 4 mps 758 mmHg 73%

    19 September, Thursday

    Time Temperature Precipitation Wind Pressure Humidity
    00:00 +25°C° 0 mm 4 mps 758 mmHg 76%
    01:00 +25°C° 0 mm 4 mps 757 mmHg 78%
    02:00 +25°C° 0 mm 3 mps 757 mmHg 81%
    03:00 +25°C° 0 mm 3 mps 757 mmHg 81%
    04:00 +24°C° 0 mm 3 mps 757 mmHg 82%
    05:00 +24°C° 0 mm 3 mps 757 mmHg 83%
    06:00 +26°C° 0 mm 3 mps 757 mmHg 75%
    07:00 +28°C° 0 mm 3 mps 758 mmHg 67%
    08:00 +30°C° 0 mm 3 mps 758 mmHg 59%
    09:00 +31°C° 0 mm 3 mps 758 mmHg 54%
    10:00 +33°C° 0 mm 4 mps 758 mmHg 50%
    11:00 +35°C° 0 mm 4 mps 758 mmHg 46%
    12:00 +35°C° 0 mm 5 mps 757 mmHg 47%
    13:00 +35°C° 0 mm 5 mps 757 mmHg 48%
    14:00 +34°C° 0 mm 6 mps 756 mmHg 49%
    15:00 +33°C° 0 mm 6 mps 756 mmHg 53%
    16:00 +32°C° 0 mm 5 mps 756 mmHg 57%
    17:00 +30°C° 0 mm 5 mps 756 mmHg 61%
    18:00 +29°C° 0 mm 5 mps 756 mmHg 67%
    19:00 +28°C° 0 mm 5 mps 756 mmHg 73%
    20:00 +27°C° 0 mm 5 mps 756 mmHg 78%
    21:00 +26°C° 0 mm 4 mps 756 mmHg 79%
    22:00 +26°C° 0 mm 4 mps 756 mmHg 81%
    23:00 +26°C° 0 mm 3 mps 756 mmHg 82%

    20 September, Friday

    Time Temperature Precipitation Wind Pressure Humidity
    00:00 +25°C° 0 mm 3 mps 756 mmHg 82%
    01:00 +25°C° 0 mm 3 mps 756 mmHg 82%
    02:00 +25°C° 0 mm 3 mps 756 mmHg 82%
    03:00 +25°C° 0 mm 2 mps 756 mmHg 83%
    04:00 +24°C° 0 mm 2 mps 756 mmHg 83%
    05:00 +24°C° 0 mm 2 mps 756 mmHg 84%
    06:00 +26°C° 0 mm 2 mps 756 mmHg 75%
    07:00 +28°C° 0 mm 2 mps 756 mmHg 66%
    08:00 +29°C° 0 mm 2 mps 756 mmHg 56%
    09:00 +30°C° 0 mm 3 mps 756 mmHg 52%
    10:00 +31°C° 0 mm 3 mps 756 mmHg 48%
    11:00 +33°C° 0 mm 4 mps 756 mmHg 44%
    12:00 +33°C° 0 mm 4 mps 755 mmHg 45%
    13:00 +33°C° 0 mm 4 mps 755 mmHg 46%
    14:00 +32°C° 0 mm 5 mps 755 mmHg 47%
    15:00 +30°C° 0 mm 5 mps 755 mmHg 51%
    16:00 +29°C° 0 mm 4 mps 755 mmHg 55%
    17:00 +28°C° 0 mm 4 mps 755 mmHg 58%
    18:00 +27°C° 0 mm 4 mps 755 mmHg 63%
    19:00 +26°C° 0 mm 3 mps 756 mmHg 68%
    20:00 +25°C° 0 mm 3 mps 756 mmHg 73%
    21:00 +25°C° 0 mm 3 mps 756 mmHg 75%
    22:00 +24°C° 0 mm 2 mps 756 mmHg 76%
    23:00 +24°C° 0 mm 2 mps 756 mmHg 77%

    21 September, Saturday

    Time Temperature Precipitation Wind Pressure Humidity
    00:00 +23°C° 0 mm 2 mps 756 mmHg 77%
    01:00 +23°C° 0 mm 2 mps 756 mmHg 77%
    02:00 +23°C° 0 mm 2 mps 756 mmHg 78%
    03:00 +22°C° 0 mm 1 mps 756 mmHg 78%
    04:00 +22°C° 0 mm 1 mps 756 mmHg 78%
    05:00 +22°C° 0 mm 1 mps 756 mmHg 78%
    06:00 +24°C° 0 mm 1 mps 756 mmHg 71%
    07:00 +26°C° 0 mm 1 mps 756 mmHg 65%
    08:00 +27°C° 0 mm 2 mps 757 mmHg 58%
    09:00 +29°C° 0 mm 2 mps 757 mmHg 54%
    10:00 +30°C° 0 mm 3 mps 757 mmHg 51%
    11:00 +31°C° 0 mm 3 mps 757 mmHg 47%
    12:00 +32°C° 0 mm 4 mps 756 mmHg 49%
    13:00 +32°C° 0 mm 4 mps 756 mmHg 50%
    14:00 +30°C° 0 mm 4 mps 756 mmHg 51%
    15:00 +30°C° 0 mm 4 mps 756 mmHg 54%
    16:00 +29°C° 0 mm 4 mps 756 mmHg 58%
    17:00 +28°C° 0 mm 4 mps 756 mmHg 61%
    18:00 +26°C° 0 mm 3 mps 756 mmHg 66%
    19:00 +25°C° 0 mm 3 mps 756 mmHg 71%
    20:00 +24°C° 0 mm 2 mps 756 mmHg 76%
    21:00 +23°C° 0 mm 2 mps 756 mmHg 77%
    22:00 +23°C° 0 mm 2 mps 756 mmHg 78%
    23:00 +23°C° 0 mm 2 mps 756 mmHg 79%
    Show more